Waseca, MN

6:23 PM CDT on July 24, 2017 (GMT -0500)
Waseca Municipal

Weather History for KACQ - July, 2013

Change the Weather History Date:

Friday, July 12, 2013

  Actual Average Record
Temperature  
Mean Temperature 73 °F -  
Max Temperature 82 °F 82 °F 104 °F (1936)
Min Temperature 64 °F 61 °F 45 °F (1941)
Cooling Degree Days 8    
Growing Degree Days 23 (Base 50)    
Moisture  
Dew Point 57 °F    
Average Humidity 55    
Maximum Humidity 68    
Minimum Humidity 39    
Precipitation  
Precipitation 0.00 in - - ()
Sea Level Pressure  
Sea Level Pressure 30.02 in    
Wind  
Wind Speed 13 mph (SSE)    
Max Wind Speed 21 mph    
Max Gust Speed 29 mph    
Visibility 10 miles    
Events      
Averages and records for this station are not official NWS values.
T = Trace of Precipitation, MM = Missing Value Source: NWS Daily Summary

Daily Weather History Graph

Daily Weather History Graph

Search for Another Location

Airport or City:

Trip Planner

Search our weather history database for the weather conditions in past years. The results will help you decide how hot, cold, wet, or windy it might be!

Date:

Astronomy

Jul. 12, 2013 Rise Set
Actual Time 5:42 AM CDT 8:56 PM CDT
Civil Twilight 5:07 AM CDT 9:31 PM CDT
Nautical Twilight 4:21 AM CDT 10:17 PM CDT
Astronomical Twilight 3:25 AM CDT 11:13 PM CDT
Moon 10:11 AM CDT (7/12) 10:55 PM CDT (7/12)
Length of Visible Light 16h 24m
Length of Day
15h 13m
Waxing Crescent, 17% of the Moon is Illuminated
Jul 12
Waxing Crescent
Jul 15
First Quarter
Jul 22
Full
Jul 29
Last Quarter
Aug 6
New

Hourly Weather History & Observations

Time (CDT) Temp. Heat Index Dew Point Humidity Pressure Visibility Wind Dir Wind Speed Gust Speed Precip Events Conditions
12:15 AM 68.0 °F - 53.6 °F 60% 30.05 in 10.0 mi SSE 6.9 mph - N/A   Clear
12:35 AM 68.0 °F - 53.6 °F 60% 30.05 in 10.0 mi SSE 9.2 mph - N/A   Clear
12:55 AM 68.0 °F - 53.6 °F 60% 30.05 in 10.0 mi SSE 9.2 mph - N/A   Clear
1:15 AM 68.0 °F - 55.4 °F 64% 30.05 in 10.0 mi SSE 9.2 mph - N/A   Clear
1:35 AM 68.0 °F - 55.4 °F 64% 30.05 in 10.0 mi SSE 10.4 mph - N/A   Clear
1:55 AM 68.0 °F - 55.4 °F 64% 30.05 in 10.0 mi South 10.4 mph - N/A   Clear
2:15 AM 68.0 °F - 55.4 °F 64% 30.05 in 10.0 mi SSE 10.4 mph 16.1 mph N/A   Scattered Clouds
2:35 AM 68.0 °F - 55.4 °F 64% 30.05 in 10.0 mi South 11.5 mph - N/A   Scattered Clouds
2:53 AM 68.0 °F - 55.4 °F 64% 30.05 in 10.0 mi SSE 10.4 mph 16.1 mph N/A   Scattered Clouds
3:15 AM 68.0 °F - 55.4 °F 64% 30.05 in 10.0 mi SSE 12.7 mph - N/A   Clear
3:36 AM 66.2 °F - 53.6 °F 64% 30.05 in 10.0 mi South 12.7 mph - N/A   Clear
3:55 AM 66.2 °F - 53.6 °F 64% 30.05 in 10.0 mi South 11.5 mph - N/A   Clear
4:15 AM 66.2 °F - 53.6 °F 64% 30.05 in 10.0 mi SSE 10.4 mph 16.1 mph N/A   Clear
4:35 AM 66.2 °F - 53.6 °F 64% 30.05 in 10.0 mi SSE 11.5 mph 16.1 mph N/A   Clear
4:55 AM 66.2 °F - 53.6 °F 64% 30.05 in 10.0 mi South 11.5 mph - N/A   Clear
5:15 AM 66.2 °F - 53.6 °F 64% 30.05 in 10.0 mi South 12.7 mph 18.4 mph N/A   Clear
5:36 AM 66.2 °F - 55.4 °F 68% 30.05 in 10.0 mi South 9.2 mph - N/A   Clear
5:55 AM 64.4 °F - 53.6 °F 68% 30.06 in 10.0 mi SSE 9.2 mph - N/A   Clear
6:15 AM 64.4 °F - 53.6 °F 68% 30.06 in 10.0 mi SSE 11.5 mph - N/A   Clear
6:35 AM 64.4 °F - 53.6 °F 68% 30.05 in 10.0 mi SSE 11.5 mph - N/A   Clear
6:55 AM 66.2 °F - 55.4 °F 68% 30.05 in 10.0 mi SSE 11.5 mph 18.4 mph N/A   Clear
7:15 AM 68.0 °F - 55.4 °F 64% 30.05 in 10.0 mi SSE 12.7 mph 17.3 mph N/A   Clear
7:36 AM 68.0 °F - 55.4 °F 64% 30.06 in 10.0 mi SSE 15.0 mph - N/A   Clear
7:55 AM 71.6 °F - 59.0 °F 64% 30.06 in 10.0 mi SSE 13.8 mph 19.6 mph N/A   Clear
8:15 AM 71.6 °F - 59.0 °F 64% 30.06 in 10.0 mi SSE 15.0 mph 20.7 mph N/A   Clear
8:35 AM 71.6 °F - 57.2 °F 60% 30.06 in 10.0 mi SSE 15.0 mph 21.9 mph N/A   Clear
8:55 AM 71.6 °F - 55.4 °F 57% 30.05 in 10.0 mi SSE 16.1 mph 20.7 mph N/A   Clear
9:15 AM 73.4 °F - 59.0 °F 61% 30.06 in 10.0 mi SSE 13.8 mph 20.7 mph N/A   Clear
9:36 AM 77.0 °F - 60.8 °F 57% 30.05 in 10.0 mi South 13.8 mph 23.0 mph N/A   Clear
9:55 AM 77.0 °F - 59.0 °F 54% 30.05 in 10.0 mi South 13.8 mph 21.9 mph N/A   Clear
10:15 AM 77.0 °F - 59.0 °F 54% 30.05 in 10.0 mi South 19.6 mph 24.2 mph N/A   Clear
10:36 AM 77.0 °F - 59.0 °F 54% 30.04 in 10.0 mi SSE 15.0 mph 25.3 mph N/A   Clear
10:55 AM 78.8 °F - 59.0 °F 51% 30.04 in 10.0 mi South 19.6 mph 27.6 mph N/A   Clear
11:15 AM 78.8 °F - 59.0 °F 51% 30.04 in 10.0 mi South 20.7 mph 24.2 mph N/A   Clear
11:35 AM 78.8 °F - 59.0 °F 51% 30.03 in 10.0 mi South 18.4 mph 23.0 mph N/A   Clear
11:55 AM 78.8 °F - 59.0 °F 51% 30.03 in 10.0 mi SSE 15.0 mph 24.2 mph N/A   Clear
12:15 PM 80.6 °F 81.5 °F 60.8 °F 51% 30.03 in 10.0 mi SSE 19.6 mph - N/A   Clear
12:35 PM 80.6 °F 81.1 °F 59.0 °F 48% 30.03 in 10.0 mi SSE 17.3 mph 26.5 mph N/A   Clear
12:56 PM 80.6 °F 81.1 °F 59.0 °F 48% 30.03 in 10.0 mi South 19.6 mph 26.5 mph N/A   Clear
1:15 PM 80.6 °F 81.1 °F 59.0 °F 48% 30.01 in 10.0 mi SSE 18.4 mph 24.2 mph N/A   Clear
1:35 PM 80.6 °F 81.1 °F 59.0 °F 48% 30.01 in 10.0 mi SSE 16.1 mph 24.2 mph N/A   Clear
1:55 PM 82.4 °F 82.5 °F 59.0 °F 45% 30.01 in 10.0 mi SSE 19.6 mph 25.3 mph N/A   Clear
2:16 PM 82.4 °F 82.5 °F 59.0 °F 45% 30.01 in 10.0 mi South 16.1 mph 25.3 mph N/A   Clear
2:35 PM 82.4 °F 82.5 °F 59.0 °F 45% 30.01 in 10.0 mi South 18.4 mph 26.5 mph N/A   Clear
2:56 PM 82.4 °F 82.5 °F 59.0 °F 45% 30.01 in 10.0 mi SSE 18.4 mph 24.2 mph N/A   Clear
3:15 PM 82.4 °F 82.0 °F 57.2 °F 42% 30.00 in 10.0 mi SSE 18.4 mph 27.6 mph N/A   Clear
3:36 PM 82.4 °F 82.5 °F 59.0 °F 45% 30.00 in 10.0 mi SSE 17.3 mph 24.2 mph N/A   Clear
3:55 PM 82.4 °F 82.0 °F 57.2 °F 42% 29.99 in 10.0 mi SSE 17.3 mph 28.8 mph N/A   Clear
4:15 PM 82.4 °F 82.0 °F 57.2 °F 42% 30.00 in 10.0 mi South 19.6 mph 28.8 mph N/A   Clear
4:35 PM 82.4 °F 82.0 °F 57.2 °F 42% 29.99 in 10.0 mi SSE 16.1 mph 24.2 mph N/A   Clear
4:56 PM 82.4 °F 81.7 °F 55.4 °F 39% 29.99 in 10.0 mi SSE 19.6 mph 26.5 mph N/A   Clear
5:15 PM 82.4 °F 81.7 °F 55.4 °F 39% 29.98 in 10.0 mi SSE 18.4 mph 26.5 mph N/A   Clear
5:35 PM 82.4 °F 81.7 °F 55.4 °F 39% 29.98 in 10.0 mi SSE 18.4 mph 26.5 mph N/A   Clear
5:56 PM 82.4 °F 81.7 °F 55.4 °F 39% 29.98 in 10.0 mi SSE 18.4 mph 25.3 mph N/A   Clear
6:15 PM 82.4 °F 81.7 °F 55.4 °F 39% 29.98 in 10.0 mi SSE 18.4 mph 26.5 mph N/A   Clear
6:35 PM 80.6 °F 80.8 °F 57.2 °F 45% 29.98 in 10.0 mi South 13.8 mph 25.3 mph N/A   Clear
6:55 PM 80.6 °F 80.5 °F 55.4 °F 42% 29.97 in 10.0 mi SSE 17.3 mph 24.2 mph N/A   Clear
7:16 PM 80.6 °F 80.8 °F 57.2 °F 45% 29.97 in 10.0 mi SSE 13.8 mph 24.2 mph N/A   Clear
7:35 PM 80.6 °F 81.1 °F 59.0 °F 48% 29.97 in 10.0 mi SSE 12.7 mph 21.9 mph N/A   Clear
7:56 PM 78.8 °F - 57.2 °F 47% 29.98 in 10.0 mi SSE 11.5 mph 20.7 mph N/A   Clear
8:16 PM 78.8 °F - 59.0 °F 51% 29.97 in 10.0 mi SSE 13.8 mph - N/A   Clear
8:35 PM 78.8 °F - 59.0 °F 51% 29.96 in 10.0 mi SSE 10.4 mph - N/A   Clear
8:56 PM 77.0 °F - 57.2 °F 50% 29.97 in 10.0 mi SE 9.2 mph - N/A   Clear
9:16 PM 77.0 °F - 59.0 °F 54% 29.97 in 10.0 mi SSE 10.4 mph 16.1 mph N/A   Clear
9:35 PM 77.0 °F - 59.0 °F 54% 29.97 in 10.0 mi SSE 11.5 mph 17.3 mph N/A   Clear
9:56 PM 77.0 °F - 59.0 °F 54% 29.97 in 10.0 mi SSE 11.5 mph 18.4 mph N/A   Clear
10:16 PM 75.2 °F - 59.0 °F 57% 29.97 in 10.0 mi SSE 12.7 mph 18.4 mph N/A   Clear
10:35 PM 73.4 °F - 57.2 °F 57% 29.97 in 10.0 mi SSE 12.7 mph 23.0 mph N/A   Clear
10:55 PM 73.4 °F - 59.0 °F 61% 29.97 in 10.0 mi SSE 13.8 mph 21.9 mph N/A   Clear
11:16 PM 71.6 °F - 57.2 °F 60% 29.99 in 10.0 mi SSE 11.5 mph 19.6 mph N/A   Scattered Clouds
11:35 PM 71.6 °F - 55.4 °F 57% 30.00 in 10.0 mi South 11.5 mph 18.4 mph N/A   Scattered Clouds
11:55 PM 71.6 °F - 55.4 °F 57% 30.01 in 10.0 mi South 13.8 mph 18.4 mph N/A   Scattered Clouds